Satellite: PO-28
Catalog number: 22829
Epoch time:      08017.42533421
Element set:     851
Inclination:      098.3452 deg
RA of node:       345.4211 deg
Eccentricity:    0.0009236
Arg of perigee:   323.1970 deg
Mean anomaly:     036.8575 deg
Mean motion:   14.30178123 rev/day
Decay rate:        4.6e-07 rev/day^2
Epoch rev:           74643
Checksum:              292

Satellite: GO-32
Catalog number: 25397
Epoch time:      08015.77048361
Element set:    0502
Inclination:      098.3863 deg
RA of node:       058.3515 deg
Eccentricity:    0.0001092
Arg of perigee:   017.1509 deg
Mean anomaly:     342.9687 deg
Mean motion:   14.23137290 rev/day
Decay rate:       -2.0e-08 rev/day^2
Epoch rev:           49439
Checksum:              302

Satellite: MO-46
Catalog number: 26548
Epoch time:      08016.92513892
Element set:     999
Inclination:      064.5564 deg
RA of node:       241.4009 deg
Eccentricity:    0.0011789
Arg of perigee:   344.7552 deg
Mean anomaly:     015.3148 deg
Mean motion:   14.83219390 rev/day
Decay rate:       -2.5e-07 rev/day^2
Epoch rev:           39523
Checksum:              325

Satellite: NO-44
Catalog number: 26931
Epoch time:      08017.32272770
Element set:     782
Inclination:      067.0546 deg
RA of node:       315.8743 deg
Eccentricity:    0.0004830
Arg of perigee:   268.8449 deg
Mean anomaly:     091.2111 deg
Mean motion:   14.29510049 rev/day
Decay rate:       1.83e-06 rev/day^2
Epoch rev:           32870
Checksum:              299

Satellite: SO-50
Catalog number: 27607
Epoch time:      08017.43606364
Element set:     506
Inclination:      064.5576 deg
RA of node:       154.4853 deg
Eccentricity:    0.0077667
Arg of perigee:   309.7975 deg
Mean anomaly:     049.6316 deg
Mean motion:   14.71319746 rev/day
Decay rate:        3.3e-07 rev/day^2
Epoch rev:           27264
Checksum:              332

Satellite: CO-55
Catalog number: 27844
Epoch time:      08017.22889534
Element set:     213
Inclination:      098.7178 deg
RA of node:       027.5927 deg
Eccentricity:    0.0009703
Arg of perigee:   190.1575 deg
Mean anomaly:     169.9393 deg
Mean motion:   14.20555014 rev/day
Decay rate:        3.1e-07 rev/day^2
Epoch rev:           23586
Checksum:              323

Satellite: CO-57
Catalog number: 27848
Epoch time:      08015.51607635
Element set:    0168
Inclination:      098.7176 deg
RA of node:       025.0336 deg
Eccentricity:    0.0009347
Arg of perigee:   200.2167 deg
Mean anomaly:     159.8619 deg
Mean motion:   14.20367617 rev/day
Decay rate:        7.0e-08 rev/day^2
Epoch rev:           23559
Checksum:              320

Satellite: AO-51
Catalog number: 28375
Epoch time:      08017.14821987
Element set:       8
Inclination:      098.0874 deg
RA of node:       050.1459 deg
Eccentricity:    0.0083139
Arg of perigee:   254.4080 deg
Mean anomaly:     104.7920 deg
Mean motion:   14.40593992 rev/day
Decay rate:        6.0e-08 rev/day^2
Epoch rev:           18651
Checksum:              310

Satellite: CO-56
Catalog number: 28941
Epoch time:      08017.19221214
Element set:     764
Inclination:      098.1060 deg
RA of node:       108.2198 deg
Eccentricity:    0.0194116
Arg of perigee:   230.0153 deg
Mean anomaly:     128.3913 deg
Mean motion:   15.48536176 rev/day
Decay rate:     2.6941e-04 rev/day^2
Epoch rev:           10645
Checksum:              298

Satellite: HO-59
Catalog number: 29484
Epoch time:      08017.30486302
Element set:      44
Inclination:      098.2560 deg
RA of node:       107.2943 deg
Eccentricity:    0.0141510
Arg of perigee:   207.5224 deg
Mean anomaly:     151.8503 deg
Mean motion:   15.70645540 rev/day
Decay rate:     8.1211e-04 rev/day^2
Epoch rev:            7445
Checksum:              282

Satellite: NO-61
Catalog number: 29664
Epoch time:      07359.16654419
Element set:     738
Inclination:      051.6179 deg
RA of node:       150.0690 deg
Eccentricity:    0.0003189
Arg of perigee:   248.8461 deg
Mean anomaly:     111.8136 deg
Mean motion:   16.51627846 rev/day
Decay rate:  1.4620719e-01 rev/day^2
Epoch rev:            5877
Checksum:              345

Satellite: CP4
Catalog number: 31122
Epoch time:      08017.26182203
Element set:     237
Inclination:      098.0632 deg
RA of node:       088.3676 deg
Eccentricity:    0.0086876
Arg of perigee:   081.0481 deg
Mean anomaly:     280.0517 deg
Mean motion:   14.55077487 rev/day
Decay rate:       5.52e-06 rev/day^2
Epoch rev:            3998
Checksum:              309

Satellite: CP3
Catalog number: 31128
Epoch time:      08017.17197355
Element set:     232
Inclination:      098.0610 deg
RA of node:       086.9046 deg
Eccentricity:    0.0104022
Arg of perigee:   084.9470 deg
Mean anomaly:     276.3607 deg
Mean motion:   14.51905406 rev/day
Decay rate:       -4.6e-07 rev/day^2
Epoch rev:            3987
Checksum:              291

